Simultaneous Nadir Overpasses (SNOs) Predictions

Prediction of SNOs between GOES-16 and NOAA-20 Satellite Orbit:

Table of predicted SNOs for the next 14.0 days since TLE Epoch: 11/16/2024
Index Date Time (GOES-16) GOES-16 Lat,Lon NOAA-20 Lat,Lon Distance(km) Time Diff (sec)
1 11/16/2024 06:30:55 0.01, -75.18 0.28, -76.47 146.34 80
2 11/17/2024 06:09:29 0.02, -75.18 -0.69, -71.93 370.42 80
3 11/18/2024 18:31:24 -0.01, -75.20 -0.47, -77.23 231.96 80
4 11/19/2024 18:15:19 -0.01, -75.20 0.57, -72.70 285.30 80
5 11/21/2024 06:37:04 0.01, -75.19 0.61, -77.96 314.96 80
6 11/22/2024 06:15:37 0.01, -75.20 -0.37, -73.42 202.76 80
7 11/23/2024 18:37:33 -0.00, -75.23 -0.77, -78.72 398.09 80
8 11/24/2024 18:21:26 -0.00, -75.24 0.22, -74.18 120.39 80
9 11/26/2024 06:43:11 0.00, -75.26 0.95, -79.45 477.76 80
10 11/27/2024 06:21:46 0.00, -75.27 -0.11, -74.92 41.02 80
11 11/29/2024 18:24:54 0.00, -75.32 -0.08, -75.67 40.07 80
